Regional Weather Roundup
Issued by NWS

Home | Current Version | Previous Version | Graphics & Text | Print | Product List | Glossary Off
Versions: 1 2 3 4 5 6 7 8 9 10 11 12 13 14 15 16 17 18 19 20 21 22 23 24 25 26 27 28 29 30 31 32 33 34 35 36 37 38 39 40 41 42 43 44 45 46 47 48 49 50

132
ASUS43 KMKX 110611
RWRWI

WISCONSIN REGIONAL WEATHER ROUNDUP
NATIONAL WEATHER SERVICE MILWAUKEE/SULLIVAN WI
1200 AM CST SUN DEC 11 2016

NOTE: "FAIR" INDICATES FEW OR NO CLOUDS BELOW 12,000 FEET WITH NO
SIGNIFICANT WEATHER AND/OR OBSTRUCTIONS TO VISIBILITY.

WIZ001-002-006>008-014>016-023>028-110700-
NORTHWEST WISCONSIN

CITY           SKY/WX    TMP DP  RH WIND       PRES   REMARKS
SUPERIOR ARPT  CLOUDY     9   3  76 E3        30.25F
6HR MIN TEMP:   6; 6HR MAX TEMP:   9;

ASHLAND        CLOUDY     7   2  80 CALM      30.27S
6HR MIN TEMP:   2; 6HR MAX TEMP:   7;

HAYWARD        LGT SNOW  11   5  77 E3        30.20F
6HR MIN TEMP:   8; 6HR MAX TEMP:  12; 6HR PCP: TRACE;

SIREN          FLURRIES  11   7  83 E3        30.19F
6HR MIN TEMP:  10; 6HR MAX TEMP:  11;

CUMBERLAND     LGT SNOW  10   9  92 E7        30.16F WCI   0
RICE LAKE      LGT SNOW  12   9  87 E6        30.20F VSB 1   WCI   3
6HR MIN TEMP:  11; 6HR MAX TEMP:  12;

CHETEK         LGT SNOW  13  10  87 CALM      30.19F
6HR MIN TEMP:  11; 6HR MAX TEMP:  13;

LADYSMITH      LGT SNOW  12   9  86 E3        30.20F
6HR MIN TEMP:  11; 6HR MAX TEMP:  12;

EAU CLAIRE     LGT SNOW  14  11  87 E8        30.18F FOG     WCI   3
6HR MIN TEMP:  12; 6HR MAX TEMP:  14; 6HR PCP:  0.02;

MENOMONIE      LGT SNOW  15  12  88 E7        30.18F WCI   5
6HR MIN TEMP:  13; 6HR MAX TEMP:  15;

NEW RICHMOND   LGT SNOW  13   9  85 E7        30.16F WCI   3
6HR MIN TEMP:  11; 6HR MAX TEMP:  13;

OSCEOLA        LGT SNOW  14  10  86 E5        30.19F WCI   6
6HR MIN TEMP:  12; 6HR MAX TEMP:  14;

$$

WIZ003>005-009-010-017-018-110700-
NORTH CENTRAL WISCONSIN

CITY           SKY/WX    TMP DP  RH WIND       PRES   REMARKS
MANITOWISH WTR CLOUDY     5   2  91 CALM      30.17F
6HR MIN TEMP:  -6; 6HR MAX TEMP:   5;

ARBOR VITAE    CLOUDY     9   5  83 CALM      30.17F
6HR MIN TEMP:   1; 6HR MAX TEMP:   9;

WOODRUFF       CLOUDY     9   5  83 CALM      30.17F
6HR MIN TEMP:   1; 6HR MAX TEMP:   9;

RHINELANDER    CLOUDY     9   4  80 SE3       30.19F HAZE
6HR MIN TEMP:   2; 6HR MAX TEMP:   9; 6HR PCP: TRACE;

EAGLE RIVER    CLOUDY     5   0  82 CALM      30.19F
6HR MIN TEMP:  -1; 6HR MAX TEMP:   5;

LAND O LAKES   CLOUDY     1  -2  85 CALM      30.20F
6HR MIN TEMP:  -5; 6HR MAX TEMP:   1;

PHILLIPS       FLURRIES   9   6  87 SE6       30.18F WCI  -1
6HR MIN TEMP:   3; 6HR MAX TEMP:   9;

TOMAHAWK       LGT SNOW   9   5  86 CALM      30.21S
6HR MIN TEMP:   4; 6HR MAX TEMP:   9;

MEDFORD        LGT SNOW  11   7  85 CALM      30.17S
6HR MIN TEMP:   8; 6HR MAX TEMP:  11;

MERRILL        LGT SNOW  11   8  87 CALM      30.22F
6HR MIN TEMP:   9; 6HR MAX TEMP:  11;

$$

WIZ029-030-035-036-043>047-110700-
CENTRAL WISCONSIN

CITY           SKY/WX    TMP DP  RH WIND       PRES   REMARKS
WAUSAU         LGT SNOW  11   8  88 E6        30.20F FOG     WCI   1
6HR MIN TEMP:  10; 6HR MAX TEMP:  11; 6HR PCP:  0.01;

MOSINEE        LGT SNOW  14  12  92 E5        30.21F WCI   6
MARSHFIELD     LGT SNOW  14  10  84 E6        30.18F FOG     WCI   5
6HR MIN TEMP:  12; 6HR MAX TEMP:  14; 6HR PCP: TRACE;

STEVENS POINT  LGT SNOW  13  10  91 E6        30.22F WCI   3
6HR MIN TEMP:  11; 6HR MAX TEMP:  13;

WAUPACA        LGT SNOW  18  15  86 CALM      30.25F
6HR MIN TEMP:  17; 6HR MAX TEMP:  18;

WAUTOMA        LGT SNOW  16  14  92 E5        30.23F VSB 1   WCI   9
6HR MIN TEMP:  15; 6HR MAX TEMP:  16; 6HR PCP: TRACE;

WISC RAPIDS    LGT SNOW  15  13  91 SE7       30.22F FOG     WCI   5
6HR MIN TEMP:  14; 6HR MAX TEMP:  15; 6HR PCP:  0.07;

CAMP DOUGLAS   LGT SNOW  17  14  88 E6        30.19F FOG     WCI   8
6HR MIN TEMP:  15; 6HR MAX TEMP:  17; 6HR PCP:  0.04;

$$

WIZ011>013-019>022-031-037>040-048>050-110700-
NORTHEAST WISCONSIN

CITY           SKY/WX    TMP DP  RH WIND       PRES   REMARKS
ANTIGO         LGT SNOW   9   6  87 SE5       30.20F WCI   1
6HR MIN TEMP:   6; 6HR MAX TEMP:  10;

SHAWANO        LGT SNOW  16  12  84 CALM      30.28F
6HR MIN TEMP:  15; 6HR MAX TEMP:  16;

OCONTO         CLOUDY    14   9  79 CALM      30.31S
6HR MIN TEMP:  10; 6HR MAX TEMP:  15;

STURGEON BAY   LGT SNOW  17  11  77 S3        30.30F
6HR MIN TEMP:  14; 6HR MAX TEMP:  17; 6HR PCP:  0.06;

GREEN BAY      LGT SNOW  19  15  84 E3        30.28F FOG
6HR MIN TEMP:  18; 6HR MAX TEMP:  19; 6HR PCP:  0.02;

MANITOWOC      LGT SNOW  17  15  92 CALM      30.30F FOG
6HR MIN TEMP:  17; 6HR MAX TEMP:  18; 6HR PCP:  0.02;

APPLETON       LGT SNOW  18  14  86 E3        30.23F
CLINTONVILLE   LGT SNOW  18  12  79 E3        30.26F
OSHKOSH        LGT SNOW  19  15  84 E6        30.25F VSB 1   WCI  11
6HR MIN TEMP:  17; 6HR MAX TEMP:  19; 6HR PCP:  0.05;

$$

WIZ032>034-041-042-053>061-110700-
SOUTHWEST WISCONSIN

CITY           SKY/WX    TMP DP  RH WIND       PRES   REMARKS
LA CROSSE      LGT SNOW  18  15  88 SE6       30.18F FOG     WCI  10
6HR MIN TEMP:  16; 6HR MAX TEMP:  18; 6HR PCP:  0.15;

SPARTA         LGT SNOW  17  15  93 E3        30.20S
6HR MIN TEMP:  15; 6HR MAX TEMP:  17;

VIROQUA        CLOUDY    17  16  93 SE10      30.14F WCI   5
6HR MIN TEMP:  14; 6HR MAX TEMP:  17;

BOSCOBEL       LGT SNOW  21  18  88 NE5       30.20F VSB 1   WCI  15
6HR MIN TEMP:  20; 6HR MAX TEMP:  23; 6HR PCP:  0.04;

PRAIRIE DU CHI LGT SNOW  22  18  86 E5        30.17F WCI  15
6HR MIN TEMP:  20; 6HR MAX TEMP:  22;

PLATTEVILLE    CLOUDY    22  21  98 E12       30.16F WCI  10
6HR MIN TEMP:  20; 6HR MAX TEMP:  22;

$$

WIZ056-057-062-063-064-067-068-110700-
SOUTH CENTRAL WISCONSIN

CITY           SKY/WX    TMP DP  RH WIND       PRES   REMARKS
REEDSBURG      LGT SNOW  18  17  96 CALM      30.20F
6HR MIN TEMP:  16; 6HR MAX TEMP:  18;

BARABOO/DELLS  LGT SNOW  19  17  92 E6        30.19F WCI  10
6HR MIN TEMP:  17; 6HR MAX TEMP:  19; 6HR PCP:  0.02;

LONE ROCK      LGT SNOW  20  18  92 E8        30.21F VSB 1   WCI  10
6HR MIN TEMP:  19; 6HR MAX TEMP:  20; 6HR PCP:  0.06;

MINERAL POINT  LGT SNOW  23  21  93 E9        30.16F WCI  13
MADISON        LGT SNOW  19  17  92 SE7       30.22F VSB 1   WCI  10
6HR MIN TEMP:  19; 6HR MAX TEMP:  20; 6HR PCP:  0.12;

MIDDLETON      CLOUDY    22  19  91 SE8       30.21F WCI  12
6HR MIN TEMP:  20; 6HR MAX TEMP:  22;

WATERTOWN      LGT SNOW  20  20 100 E7        30.23F WCI  11
6HR MIN TEMP:  19; 6HR MAX TEMP:  20; 6HR PCP:  0.01;

MONROE         LGT SNOW  21  21 100 E6        30.19F WCI  14
JANESVILLE     LGT SNOW  23  23 100 SE6       30.22F WCI  16
$$

WIZ051-052-058>065-066-070>072-110700-
SOUTHEAST WISCONSIN

CITY           SKY/WX    TMP DP  RH WIND       PRES   REMARKS
MILWAUKEE      LGT SNOW  22  18  85 SE6       30.28F VSB 1   WCI  14
6HR MIN TEMP:  22; 6HR MAX TEMP:  22; 6HR PCP:  0.06;

WAUKESHA       LGT SNOW  19  18  93 E6        30.26F WCI  11
MILWAUKEE/TIMM LGT SNOW  21  18  86 SE3       30.28F
RACINE         LGT SNOW  23  19  85 S6        30.29F FOG     WCI  16
6HR MIN TEMP:  21; 6HR MAX TEMP:  23; 6HR PCP:  0.03;

BURLINGTON     LGT SNOW  25  24  96 CALM      30.25F
6HR MIN TEMP:  24; 6HR MAX TEMP:  25;

KENOSHA        LGT SNOW  23  19  85 S10       30.27F FOG     WCI  12
6HR MIN TEMP:  21; 6HR MAX TEMP:  23; 6HR PCP: TRACE;

FOND DU LAC    LGT SNOW  20  15  81 SE6       30.24F WCI  12
6HR MIN TEMP:  18; 6HR MAX TEMP:  20; 6HR PCP:  0.04;

SHEBOYGAN      LGT SNOW  18  15  88 CALM      30.28F FOG
6HR MIN TEMP:  18; 6HR MAX TEMP:  18; 6HR PCP:  0.02;

WEST BEND      LGT SNOW  19  19 100 E3        30.25F
JUNEAU         LGT SNOW  19  17  93 E7        30.24F VSB 3/4 WCI  10
6HR MIN TEMP:  17; 6HR MAX TEMP:  19; 6HR PCP:  0.01;

$$

LSZ147-162-110700-
LAKE SUPERIOR

STATION/POSITION TIME  TEMP    WIND        PRES    WAVE
                       AIR SEA DIR/SP/G            HT/PER
                 (UTC) (F)     (DEG/KT/KT) (MB)    (FT/S)
DEVILS ISLAND    0600   14     190/  4/  5 1026.2F
PORT WING        0530    7     120/  4/  6 1025.1F
SAXON HARBOR     0530    6     180/  4/  6 1025.1F
$$

LMZ867-665-643>646-110700-
LAKE MICHIGAN

STATION/POSITION TIME  TEMP    WIND        PRES    WAVE
               C1F1C2F2C3F3C4F4C5F5C6F6C7F7C8M1C9M2Ca!



USA.gov is the U.S. government's official web portal to all federal, state and local government web resources and services.